Wind_Speed
19 21 23 26 28 30 32 33 36 38 40 40 43 46 52 58 62 70 75 78 77 77 78 73 68 66 68 62 60 59 58 56 55 53 52 51 48 47 42 39 36 36 35 35
22 25 26 29 30 32 34 36 39 41 43 45 46 51 48 48 54 59 69 77 81 81 82 80 76 72 72 70 67 60 60 60 60 60 57 58 54 55 51 49 46 43 40 39
25 27 29 30 32 34 37 40 42 46 47 47 48 49 43 44 48 52 54 61 69 74 78 82 79 77 76 75 73 67 63 61 62 61 62 60 60 60 54 54 50 45 41 41
27 29 30 32 35 36 38 41 45 48 48 46 45 46 34 39 46 50 53 55 58 63 63 69 74 75 78 77 76 73 67 66 60 64 64 64 63 61 59 55 53 47 46 44
28 30 30 32 34 37 39 42 45 46 42 40 36 38 27 27 35 42 48 50 53 53 61 62 67 70 74 75 76 76 73 67 68 63 65 65 65 63 63 60 59 55 52 50
32 32 33 35 36 39 41 43 45 44 37 33 26 28 21 21 21 25 29 39 45 49 53 62 64 68 69 71 70 72 75 75 71 71 64 65 65 65 64 61 62 58 56 53
32 34 35 36 38 40 43 45 46 41 33 28 24 27 26 19 18 20 17 20 24 38 46 52 64 65 70 68 67 67 69 75 76 74 73 65 65 65 67 65 65 65 62 59
31 34 37 38 39 41 42 45 44 42 32 24 23 31 31 25 23 22 23 24 24 28 35 43 50 68 69 73 70 67 66 70 70 74 76 73 67 65 67 67 68 69 66 63
31 33 36 38 39 40 42 43 45 41 35 31 25 25 31 34 32 23 6 9 22 29 26 29 36 42 74 71 75 74 69 70 70 70 74 78 71 68 65 69 70 71 73 67
31 32 36 37 40 41 42 41 40 38 37 37 29 27 28 26 29 31 25 31 26 19 23 22 31 33 34 57 75 78 77 73 70 70 72 75 75 72 69 67 69 71 77 75
32 33 37 37 38 40 43 45 42 37 35 37 39 28 33 32 34 40 39 36 33 30 29 15 13 22 31 37 36 61 85 78 76 73 75 73 76 76 75 73 71 71 74 75
32 33 35 37 38 40 42 44 43 39 34 31 35 29 27 36 38 41 38 30 32 36 35 36 25 22 22 24 33 33 49 69 89 83 81 80 77 78 79 78 76 76 74 78
32 33 35 37 37 40 41 43 43 41 38 29 27 27 27 30 39 38 34 33 28 28 35 40 41 42 35 31 29 29 36 41 44 61 92 93 86 83 82 79 79 80 81 79
31 31 33 36 35 38 39 38 40 39 36 25 21 26 26 23 21 28 27 25 28 27 29 29 33 40 43 45 43 37 36 39 45 45 46 70 89 90 89 87 84 83 84 83
33 32 32 36 33 37 39 36 38 35 34 30 23 18 17 16 18 15 20 24 25 27 24 26 25 28 32 36 43 49 43 39 39 44 50 51 57 86 90 95 92 89 89 88
33 33 32 34 33 34 36 36 35 34 32 30 33 24 21 19 21 9 9 13 17 15 20 22 26 26 28 30 34 38 43 52 48 47 46 51 56 63 91 94 96 94 92 94
31 32 32 31 34 32 36 34 34 29 27 29 30 29 25 22 22 18 17 19 20 21 23 22 22 26 26 25 23 21 24 36 47 58 57 58 58 62 70 95 98 100 99 96
32 32 33 32 34 30 33 33 34 30 27 27 26 27 29 28 29 31 28 30 29 28 27 28 25 26 26 26 26 26 24 22 29 38 46 49 52 57 61 71 95 101 104 100
32 32 34 34 34 28 27 33 32 35 23 30 26 29 29 29 30 31 33 34 36 37 31 31 28 25 26 27 29 28 29 25 21 22 31 44 42 46 49 58 67 93 104 104
31 34 34 34 37 31 29 32 33 35 28 29 27 28 28 31 33 32 32 35 36 36 34 35 32 26 28 29 28 29 30 29 29 22 23 31 32 35 37 44 56 66 91 105
33 35 33 35 36 30 26 30 33 33 33 29 31 30 29 31 33 27 24 26 28 32 32 34 38 34 27 29 29 28 28 27 27 32 25 21 24 27 33 39 48 54 61 84
34 34 35 37 36 33 30 32 34 34 35 35 31 29 28 31 30 30 31 31 30 30 30 30 29 30 31 31 30 28 29 26 25 27 30 24 19 17 25 33 43 46 50 51
35 33 38 39 37 33 31 33 36 37 37 37 33 31 28 29 29 28 31 35 33 34 32 28 25 25 28 31 33 32 28 30 25 26 27 28 28 22 12 23 32 37 45 47
34 32 39 44 33 35 35 37 38 39 38 37 35 32 30 30 31 31 34 33 34 35 33 33 31 27 28 31 32 35 35 33 32 29 28 27 27 29 25 13 20 34 39 36
29 31 41 44 35 37 33 38 37 37 38 37 36 33 32 32 31 34 34 34 36 36 37 37 35 33 29 28 33 35 36 39 38 36 34 31 28 26 26 29 20 21 33 41
30 39 44 42 39 32 27 34 38 39 36 36 37 34 32 32 30 31 34 34 35 36 37 34 34 33 33 30 29 31 39 41 43 43 40 38 36 31 29 26 29 28 22 28
Wind_Direction
297 299 300 304 306 305 305 303 298 296 295 289 285 288 275 264 257 248 244 240 234 232 235 235 237 237 241 243 239 236 228 222 225 229 231 233 230 229 237 238 243 244 243 248
301 307 311 311 312 313 311 308 309 307 304 303 298 294 276 268 262 254 245 239 236 233 230 231 232 234 236 239 242 237 235 230 227 226 224 224 227 230 224 230 233 236 237 242
307 310 312 314 316 319 318 317 318 314 310 308 306 297 280 262 259 257 252 243 238 234 232 229 229 230 233 235 237 240 238 236 230 229 229 225 227 228 232 229 228 233 240 237
308 313 316 317 319 322 322 324 323 320 314 309 304 300 282 265 254 256 254 250 246 238 233 231 231 233 233 232 234 236 236 238 236 232 229 231 228 230 230 230 227 230 235 240
309 313 316 318 321 323 325 328 326 323 315 308 309 298 294 271 256 256 256 253 252 248 239 234 229 230 233 234 234 234 236 234 240 237 232 230 232 230 234 233 224 224 230 234
311 315 317 321 326 325 328 330 330 326 315 311 302 285 280 266 283 274 268 263 253 251 246 237 234 228 230 233 231 233 233 235 236 241 237 233 228 232 232 235 230 224 226 231
314 317 317 322 329 331 333 332 332 328 315 306 292 276 272 256 282 287 288 262 263 254 250 244 236 234 227 231 234 229 229 231 233 237 239 236 234 231 232 234 233 228 227 229
318 320 321 324 325 331 331 331 332 327 317 294 283 270 265 262 257 287 282 271 258 258 255 250 243 233 234 228 231 233 230 228 232 233 237 238 236 233 231 232 235 234 231 232
319 320 320 325 326 331 333 333 332 328 317 304 280 270 261 259 262 261 248 258 230 236 252 258 250 247 234 238 229 230 233 230 230 231 235 238 235 233 231 233 234 235 235 231
316 319 320 323 327 330 332 333 334 329 318 306 291 274 267 255 254 256 256 276 289 285 242 255 260 253 247 240 238 235 232 236 233 229 230 234 237 232 230 229 234 235 234 231
313 317 319 321 325 330 332 334 336 333 323 310 302 282 269 266 266 262 263 271 274 282 283 267 265 258 253 249 247 242 237 236 235 228 230 229 234 238 230 228 227 235 238 235
311 313 316 319 326 328 332 333 335 340 332 320 307 314 277 268 266 265 264 268 268 272 272 276 272 266 267 265 254 256 241 239 236 232 230 230 232 234 238 231 229 230 234 239
308 310 315 317 324 328 331 335 336 338 337 331 334 335 308 278 263 269 271 276 279 275 273 269 270 270 270 268 266 259 250 244 241 243 237 237 236 234 234 237 231 231 233 235
306 308 313 315 322 325 329 334 336 338 338 340 332 335 333 310 279 262 265 264 267 273 276 274 270 267 268 265 265 260 256 251 250 254 252 241 235 234 233 236 237 229 232 235
305 308 312 313 320 322 327 334 334 337 333 327 318 322 342 343 342 275 263 265 269 276 287 289 280 278 270 266 264 259 251 254 254 254 251 251 244 236 236 236 237 236 231 233
304 307 312 312 317 320 324 330 334 333 328 324 312 316 311 319 343 320 277 265 270 293 308 295 284 282 279 277 268 264 263 259 255 249 250 254 251 243 236 234 235 237 236 233
302 305 309 311 313 320 322 327 329 331 328 318 308 306 301 297 305 307 313 305 305 298 293 301 294 275 276 283 286 284 280 266 261 261 257 257 258 253 243 234 233 237 238 237
301 304 307 310 309 320 318 321 325 326 327 319 318 308 299 288 284 289 287 293 297 297 295 291 298 277 281 287 292 295 292 284 267 254 253 265 263 259 252 240 234 235 238 238
301 302 304 309 307 316 317 313 319 320 326 319 323 311 304 301 291 286 289 291 292 290 292 291 289 287 287 289 286 290 297 300 299 282 268 267 269 259 255 246 239 235 237 239
299 301 303 305 305 314 310 307 313 316 327 315 314 310 306 300 299 295 296 292 290 289 287 286 286 287 282 288 290 287 295 304 309 306 294 284 280 259 252 247 246 243 236 238
300 300 301 298 302 310 302 304 304 311 313 318 317 314 309 304 302 309 312 308 305 302 298 288 281 280 279 281 287 297 293 297 304 307 308 299 295 280 260 252 247 247 246 240
298 299 299 295 298 303 304 301 303 306 308 312 318 315 310 305 305 300 303 315 310 313 321 305 285 279 280 279 283 286 289 292 295 302 307 306 318 292 272 258 252 253 250 251
297 299 294 295 294 301 303 299 301 302 305 309 315 314 309 304 303 300 293 307 308 306 313 323 314 288 273 276 277 283 283 284 289 294 296 305 310 319 294 270 262 256 251 251
298 298 290 284 294 296 296 299 298 298 304 306 310 309 302 305 296 297 298 306 302 304 307 309 311 314 290 274 270 275 280 278 278 282 288 290 297 305 312 282 266 266 259 254
303 289 280 287 294 291 299 293 292 294 300 303 304 303 301 302 294 295 298 298 299 304 306 307 305 304 305 293 275 265 268 274 275 276 277 281 284 287 293 304 284 264 261 262
285 276 283 289 290 304 297 290 290 294 298 298 299 299 298 297 295 293 295 296 302 305 306 304 307 305 299 296 293 280 269 264 269 272 272 275 276 277 282 285 293 290 263 255
Height
5785 5784 5782 5780 5778 5775 5770 5767 5764 5759 5756 5755 5751 5745 5738 5730 5724 5730 5739 5748 5752 5758 5762 5766 5767 5771 5773 5781 5791 5799 5802 5805 5807 5815 5823 5830 5834 5841 5846 5850 5854 5856 5859 5862
5781 5777 5775 5773 5770 5766 5761 5757 5751 5744 5738 5735 5732 5726 5719 5710 5703 5705 5713 5716 5723 5729 5738 5747 5754 5758 5761 5767 5773 5784 5791 5797 5798 5801 5807 5813 5822 5829 5834 5838 5841 5847 5850 5854
5774 5772 5768 5765 5762 5757 5751 5745 5737 5729 5721 5716 5710 5703 5699 5695 5690 5688 5691 5694 5696 5705 5713 5723 5735 5743 5747 5752 5759 5768 5777 5784 5791 5795 5799 5803 5809 5814 5820 5827 5833 5840 5846 5848
5767 5764 5760 5756 5753 5748 5743 5735 5725 5715 5706 5700 5696 5689 5686 5681 5679 5675 5676 5679 5684 5690 5695 5703 5714 5722 5729 5738 5745 5751 5761 5767 5777 5784 5789 5794 5800 5806 5813 5819 5827 5833 5836 5840
5761 5757 5753 5749 5745 5740 5734 5725 5716 5705 5696 5688 5684 5677 5674 5672 5669 5666 5664 5670 5675 5679 5685 5691 5698 5704 5710 5719 5731 5738 5743 5755 5760 5770 5777 5783 5788 5794 5800 5808 5811 5817 5823 5829
5754 5751 5747 5742 5736 5730 5724 5717 5707 5696 5687 5682 5677 5671 5671 5668 5666 5661 5661 5662 5665 5668 5672 5677 5683 5690 5697 5702 5713 5723 5731 5736 5747 5751 5761 5769 5777 5782 5787 5795 5802 5805 5810 5816
5747 5744 5739 5735 5730 5721 5713 5705 5698 5691 5681 5675 5671 5666 5664 5666 5663 5656 5656 5656 5657 5658 5660 5665 5671 5677 5685 5690 5696 5707 5716 5723 5729 5736 5743 5753 5762 5769 5776 5783 5789 5794 5798 5803
5740 5737 5731 5727 5722 5716 5708 5699 5690 5680 5675 5672 5667 5660 5660 5660 5659 5655 5652 5651 5651 5651 5652 5653 5656 5662 5668 5676 5684 5690 5698 5708 5714 5721 5727 5735 5746 5754 5761 5768 5776 5783 5789 5794
5734 5729 5723 5719 5713 5710 5701 5692 5682 5672 5665 5660 5660 5656 5652 5653 5652 5653 5649 5647 5645 5645 5646 5646 5647 5651 5656 5661 5668 5676 5682 5690 5698 5705 5713 5718 5729 5738 5746 5753 5760 5767 5776 5783
5728 5723 5718 5713 5706 5701 5695 5687 5676 5667 5657 5650 5651 5649 5646 5646 5646 5645 5644 5643 5643 5643 5641 5641 5641 5642 5645 5649 5656 5661 5667 5674 5682 5689 5697 5703 5710 5720 5729 5737 5744 5750 5757 5765
5721 5716 5710 5705 5700 5692 5685 5677 5670 5663 5654 5644 5637 5643 5641 5639 5637 5636 5636 5637 5638 5638 5637 5636 5636 5636 5638 5641 5643 5646 5651 5658 5667 5673 5679 5687 5694 5700 5709 5718 5727 5733 5739 5747
5714 5710 5704 5699 5692 5687 5680 5673 5665 5657 5651 5640 5629 5631 5629 5625 5622 5620 5625 5629 5629 5630 5631 5630 5629 5629 5631 5632 5633 5634 5637 5642 5649 5656 5662 5669 5677 5683 5689 5700 5709 5717 5722 5727
5707 5703 5698 5692 5688 5679 5672 5665 5657 5650 5644 5634 5626 5623 5617 5614 5613 5618 5621 5621 5622 5621 5623 5623 5622 5622 5622 5624 5624 5624 5626 5629 5633 5638 5645 5651 5658 5666 5670 5679 5689 5698 5705 5710
5700 5697 5692 5687 5681 5674 5666 5660 5652 5644 5639 5634 5626 5620 5616 5609 5606 5608 5612 5614 5614 5613 5613 5613 5612 5611 5612 5614 5615 5617 5618 5619 5620 5624 5628 5632 5637 5646 5653 5659 5666 5676 5684 5692
5692 5689 5685 5680 5676 5668 5661 5655 5647 5642 5635 5630 5628 5620 5616 5610 5605 5603 5604 5606 5607 5606 5605 5605 5603 5601 5601 5602 5603 5606 5608 5608 5609 5610 5613 5617 5620 5626 5635 5641 5646 5655 5664 5671
5684 5681 5677 5673 5669 5663 5657 5651 5644 5638 5632 5627 5622 5618 5614 5610 5606 5603 5602 5601 5601 5600 5600 5599 5597 5596 5594 5592 5592 5592 5594 5596 5597 5599 5601 5601 5604 5607 5613 5621 5627 5633 5642 5650
5677 5673 5670 5666 5660 5656 5651 5645 5639 5635 5629 5625 5621 5617 5614 5610 5606 5603 5602 5599 5598 5597 5596 5594 5592 5590 5587 5585 5584 5584 5584 5584 5584 5585 5587 5588 5589 5590 5593 5600 5608 5614 5620 5629
5670 5666 5662 5658 5652 5650 5644 5639 5634 5630 5625 5621 5617 5613 5610 5607 5603 5600 5597 5595 5594 5592 5591 5589 5587 5583 5580 5579 5577 5576 5575 5575 5573 5571 5574 5575 5573 5571 5575 5580 5588 5595 5599 5608
5662 5658 5654 5650 5645 5645 5639 5632 5628 5622 5623 5614 5612 5607 5602 5599 5597 5594 5591 5589 5587 5585 5584 5582 5580 5578 5575 5573 5572 5569 5569 5565 5562 5560 5561 5563 5559 5557 5559 5564 5570 5578 5584 5589
5655 5652 5649 5643 5637 5637 5633 5626 5621 5616 5615 5610 5607 5602 5598 5593 5589 5587 5584 5582 5579 5577 5575 5573 5570 5570 5568 5565 5563 5561 5559 5557 5554 5552 5549 5547 5546 5546 5547 5551 5555 5559 5566 5571
5647 5643 5640 5634 5630 5631 5627 5621 5615 5611 5609 5603 5599 5595 5592 5587 5583 5580 5577 5574 5571 5568 5564 5561 5560 5560 5559 5557 5555 5553 5552 5550 5548 5545 5542 5540 5536 5535 5535 5538 5543 5546 5549 5555
5638 5635 5631 5626 5622 5621 5618 5613 5609 5605 5599 5595 5594 5589 5584 5579 5577 5574 5570 5567 5564 5562 5557 5553 5550 5549 5548 5548 5546 5546 5545 5543 5541 5539 5536 5533 5530 5527 5525 5526 5530 5533 5537 5540
5630 5628 5622 5617 5614 5612 5608 5605 5600 5596 5592 5588 5585 5582 5577 5573 5570 5567 5564 5561 5557 5554 5551 5548 5543 5540 5539 5538 5537 5537 5536 5535 5533 5531 5530 5527 5524 5521 5518 5517 5519 5521 5525 5529
5621 5619 5612 5603 5609 5603 5600 5595 5591 5587 5584 5580 5577 5574 5569 5566 5563 5560 5557 5554 5551 5547 5544 5541 5538 5534 5530 5528 5527 5526 5524 5525 5524 5522 5522 5520 5518 5516 5512 5509 5509 5510 5512 5515
5614 5609 5600 5596 5598 5593 5593 5586 5583 5579 5575 5571 5569 5566 5562 5558 5555 5552 5550 5548 5545 5540 5536 5532 5529 5526 5523 5520 5516 5516 5514 5511 5511 5511 5511 5511 5510 5509 5507 5503 5501 5500 5500 5501
5602 5595 5589 5587 5587 5587 5587 5578 5573 5571 5569 5564 5560 5558 5555 5551 5548 5545 5543 5540 5537 5533 5529 5525 5520 5517 5514 5511 5509 5506 5504 5501 5499 5498 5499 5498 5499 5499 5498 5498 5496 5492 5491 5490